Regional Weather Roundup
Issued by NWS

Home | Current Version | Previous Version | Text Only | Print | Product List | Glossary Off
Versions: 1 2 3 4 5 6 7 8 9 10 11 12 13 14 15 16 17 18 19 20 21 22 23 24 25 26 27 28 29 30 31 32 33 34 35 36 37 38 39 40 41 42 43 44 45 46 47 48 49 50

000
ASUS44 KMEG 210110
RWRTN
TENNESSEE HOURLY STATE WEATHER ROUNDUP
NATIONAL WEATHER SERVICE MEMPHIS TN
800 PM CDT MON OCT 20 2014

TNZ002-004-019-021-049-052-054-088>092-210200-
WEST TENNESSEE

CITY           SKY/WX    TMP DP  RH WIND       PRES   REMARKS
MEMPHIS INTL   CLEAR     60  52  74 S5        30.02S
NWS MEMPHIS      N/A     58 N/A N/A MISG        N/A
JACKSON        CLEAR     57  52  83 S7        30.01S
DYERSBURG      CLEAR     63  45  51 SW5       30.01S
UNION CITY     PTCLDY    57  52  82 S3        29.98S
PARIS          CLEAR     54  48  82 CALM      30.00S
HUNTINGDON     CLEAR     58  50  75 CALM      30.00S
LEXINGTON      CLEAR     54  52  94 CALM      30.00S
SAVANNAH       CLEAR     54  54 100 CALM      30.03S
$$

TNZ008-025-027-028-033-062-065-066-210200-
NORTH MIDDLE TENNESSEE

CITY           SKY/WX    TMP DP  RH WIND       PRES   REMARKS
NASHVILLE      CLEAR     56  49  77 S5        30.00S
CLARKSVILLE    CLEAR     60  52  74 SW3       29.98R
SMYRNA         CLEAR     49  47  93 CALM      30.02R
COOKEVILLE     CLEAR     46  46 100 CALM      30.01R
CROSSVILLE     CLEAR     52  46  80 W5        30.03R
$$

TNZ061-075-076-078-094-096-097-210200-
SOUTH MIDDLE TENNESSEE

CITY           SKY/WX    TMP DP  RH WIND       PRES   REMARKS
FAYETTEVILLE   CLEAR     54  48  82 W15G162   30.03R
TULLAHOMA      CLEAR     52  48  87 CALM      30.04R
WINCHESTER     CLEAR     52  52 100 CALM      30.03S
MCMINNVILLE    CLEAR     52  52 100 CALM      30.02S
COLUMBIA       CLEAR     54  54 100 SW3       30.00S
SHELBYVILLE    CLEAR     52  52 100 CALM      30.03S
$$

TNZ017-018-042-046-047-210200-
NORTHEAST TENNESSEE

CITY           SKY/WX    TMP DP  RH WIND       PRES   REMARKS
TRI CITIES     CLOUDY    55  49  80 CALM      29.99S
ELIZABETHTON   CLOUDY    52  48  87 CALM      30.00S
$$

TNZ012-013-036-069-073-074-210200-
CENTRAL EAST TENNESSEE

CITY           SKY/WX    TMP DP  RH WIND       PRES   REMARKS
KNOXVILLE      PTCLDY    57  50  77 SW6       29.99R
OAK RIDGE      CLEAR     57  53  86 SW3       30.01R
GATLINBURG     CLOUDY    55  50  82 CALM      29.99S
MORRISTOWN     PTCLDY    57  52  82 SW3       30.00S
$$

TNZ083-085-099-210200-
SOUTHEAST TENNESSEE

CITY           SKY/WX    TMP DP  RH WIND       PRES   REMARKS
CHATTANOOGA    MOCLDY    58  52  80 CALM      30.02R
$$

SKY/WX REPORTED AS FAIR MEANS FEW OR NO CLOUDS BELOW
12 THOUSAND FEET.



USA.gov is the U.S. government's official web portal to all federal, state and local government web resources and services.